Location: Melbourne
(37.8666°S, 145.1333°E)
Time: 00:31:47
(UTC+11:00)

Amateur Radio Satellites - All Passes

Search period start: 22 December 2014 00:01
Search period end: 23 December 2014 00:01
Location: Melbourne, 37.8666°S, 145.1333°E

Satellite Date Start Highest point End Downlink Frequencies (MHz)
Time Altitude Azimuth
DUCHIFAT 1 22 Dec 00:05:35 00:09:36 37° 278° (W) 00:13:41 145.980
Oscar 11 22 Dec 00:08:41 00:11:46 19° 247° (WSW) 00:14:50 145.826/435.025
UNISAT 6 22 Dec 00:13:51 00:17:25 22° 275° (W) 00:20:59 437.425
UKube-1 22 Dec 00:17:19 00:20:42 22° 247° (WSW) 00:24:03 .
QB50P2 22 Dec 00:20:06 00:23:43 25° 276° (W) 00:27:22 145.880/145.840
POLYITAN 1 22 Dec 00:29:36 00:32:52 20° 274° (W) 00:36:09 437.675
NANOSAT C BR1 22 Dec 00:31:22 00:34:31 20° 274° (W) 00:37:43 145.865
CUBEBUG 2 22 Dec 00:33:24 00:36:05 16° 246° (WSW) 00:38:42 437.445
ZACube-1 22 Dec 00:41:03 00:43:57 18° 247° (WSW) 00:46:48 437.345
VELOX 1 22 Dec 00:43:45 00:47:49 33° 250° (WSW) 00:51:49 145.980
QB50P1 22 Dec 00:47:03 00:49:12 13° 272° (W) 00:51:22 145.935-145.965
ESTCUBE 1 22 Dec 00:47:59 00:52:36 74° 255° (WSW) 00:57:11 437.505/2401.250
CUSAT 1 22 Dec 00:48:54 00:50:02 10° 248° (WSW) 00:51:08 437.405
Oscar 19 22 Dec 00:49:37 00:52:52 17° 117° (ESE) 00:56:08 437.125/150
TISAT 1 22 Dec 00:55:02 00:58:50 29° 84° (E) 01:02:33 437.305
SPROUT 22 Dec 01:00:17 01:04:12 31° 83° (E) 01:08:04 437.525
RS-15 22 Dec 01:00:35 01:12:48 86° 62° (ENE) 01:25:10 29.354- 29.394
BEESAT 2 22 Dec 01:03:26 01:04:16 11° 72° (ENE) 01:05:07 435.950
YUBILEINY 22 Dec 01:07:54 01:16:24 52° 269° (W) 01:24:48 435.215
ISS 22 Dec 01:09:38 01:11:11 13° 52° (NE) 01:12:44 145.825
50 SAT 22 Dec 01:09:39 01:12:17 17° 247° (WSW) 01:14:54 437.505
O/OREOS (USA 219) 22 Dec 01:14:25 01:15:51 11° 277° (W) 01:17:17 437.305
AISAT 22 Dec 01:29:24 01:31:00 12° 243° (WSW) 01:32:36 437.250
CUBEBUG 1 22 Dec 01:31:06 01:34:52 26° 249° (WSW) 01:38:36 437.445
BEESAT 3 22 Dec 01:57:33 02:01:27 53° 63° (ENE) 02:05:21 437.485
SWISSCUBE 22 Dec 01:58:59 02:02:54 24° 85° (E) 02:06:46 437.505
ITUPSAT 1 22 Dec 01:59:51 02:03:36 22° 86° (E) 02:07:20 437.325
AIST 2 22 Dec 02:08:48 02:12:17 27° 67° (ENE) 02:15:45 435.215
BEESAT 22 Dec 02:23:21 02:27:55 39° 82° (E) 02:32:25 436.000
Oscar 19 22 Dec 02:26:36 02:31:42 57° 281° (W) 02:36:51 437.125/150
PCSat 22 Dec 02:28:22 02:33:40 59° 67° (ENE) 02:39:00 145.827
TISAT 1 22 Dec 02:31:06 02:34:28 22° 248° (WSW) 02:37:48 437.305
JUGNU 22 Dec 02:35:03 02:37:30 13° 360° (N) 02:39:57 437.505
SPROUT 22 Dec 02:36:46 02:40:04 21° 248° (WSW) 02:43:21 437.525
BEESAT 2 22 Dec 02:38:01 02:41:59 58° 237° (WSW) 02:45:57 435.950
Gurwin Techsat 1B 22 Dec 02:43:04 02:48:08 46° 109° (ESE) 02:53:15 435.225
ITAMSAT 1 22 Dec 02:43:38 02:48:51 77° 105° (ESE) 02:54:09 435.822/435.867
ISS 22 Dec 02:44:06 02:47:23 58° 217° (SW) 02:50:43 145.825
AUBIESAT-1 22 Dec 02:53:19 02:56:36 23° 78° (ENE) 03:00:05 437.475
STARS 22 Dec 03:11:37 03:14:21 16° 87° (E) 03:17:03 437.465
KKS-1 22 Dec 03:15:58 03:19:49 27° 84° (E) 03:23:38 437.445
RS-15 22 Dec 03:16:17 03:26:55 33° 217° (SW) 03:37:34 29.354- 29.394
M-CUBED/EXP-1 PRIME 22 Dec 03:18:58 03:22:54 52° 75° (ENE) 03:27:08 437.505
SWISSCUBE 22 Dec 03:36:23 03:40:46 34° 250° (WSW) 03:45:05 437.505
ITUPSAT 1 22 Dec 03:37:05 03:41:33 37° 250° (WSW) 03:45:59 437.325
BEESAT 3 22 Dec 03:37:41 03:39:55 14° 226° (SW) 03:42:10 437.485
SRMSAT 22 Dec 03:39:45 03:42:21 13° 2° (N) 03:44:57 437.500
HORYU 2 22 Dec 03:43:02 03:47:30 68° 105° (ESE) 03:52:01 437.375
AIST 2 22 Dec 03:47:25 03:50:49 25° 231° (SW) 03:54:15 435.215
AO-7 22 Dec 03:56:04 04:04:00 50° 115° (ESE) 04:11:57 29.400- 29.500
BEESAT 22 Dec 04:01:51 04:05:27 21° 246° (WSW) 04:09:03 436.000
JAS-2 22 Dec 04:04:08 04:06:30 13° 123° (ESE) 04:08:58 435.910
PCSat 22 Dec 04:13:28 04:17:28 21° 229° (SW) 04:21:29 145.827
ISS 22 Dec 04:22:54 04:24:33 13° 199° (SSW) 04:26:13 145.825
Gurwin Techsat 1B 22 Dec 04:24:22 04:28:17 21° 273° (W) 04:32:14 435.225
ITAMSAT 1 22 Dec 04:27:18 04:28:53 11° 270° (W) 04:30:28 435.822/435.867
AUBIESAT-1 22 Dec 04:28:07 04:31:30 27° 247° (WSW) 04:35:06 437.475
AIST 1 22 Dec 04:40:32 04:43:34 19° 93° (E) 04:46:37
STARS 22 Dec 04:46:47 04:51:01 42° 252° (WSW) 04:55:11 437.465
KKS-1 22 Dec 04:52:37 04:56:21 26° 248° (WSW) 05:00:01 437.445
M-CUBED/EXP-1 PRIME 22 Dec 04:55:43 04:57:36 13° 242° (WSW) 04:59:32 437.505
GONETS M04 22 Dec 05:06:20 05:14:30 39° 106° (ESE) 05:22:35
SRMSAT 22 Dec 05:28:53 05:30:39 11° 352° (N) 05:32:25 437.500
RS-15 22 Dec 05:37:40 05:45:05 17° 183° (S) 05:52:22 29.354- 29.394
JAS-2 22 Dec 05:45:11 05:50:33 84° 283° (WNW) 05:56:34 435.910
Cubesat XI-IV 22 Dec 05:46:34 05:50:40 23° 115° (ESE) 05:54:47 437.490
AO-7 22 Dec 05:49:32 05:56:54 35° 278° (W) 06:04:21 29.400- 29.500
MOZHAYETS 4 22 Dec 06:07:02 06:11:40 63° 79° (E) 06:16:16
AIST 1 22 Dec 06:17:06 06:20:57 31° 257° (WSW) 06:24:52
CUTE-I 22 Dec 06:18:24 06:23:27 43° 110° (ESE) 06:28:34 437.470
PRISM 22 Dec 06:33:39 06:36:10 15° 87° (E) 06:38:39 437.425
MaSat-1 22 Dec 06:34:02 06:36:17 18° 124° (ESE) 06:38:26 437.345
GONETS M04 22 Dec 07:03:08 07:11:17 43° 267° (W) 07:19:25
Cubesat XI-IV 22 Dec 07:25:17 07:30:24 45° 279° (W) 07:35:36 437.490
CUBESAT XI-V 22 Dec 07:32:45 07:37:11 36° 83° (E) 07:41:33 437.345
ISS 22 Dec 07:38:08 07:40:14 15° 158° (SSE) 07:42:19 145.825
MOZHAYETS 4 22 Dec 07:46:17 07:48:19 13° 244° (WSW) 07:50:21
RS-15 22 Dec 07:53:30 08:03:33 29° 147° (SSE) 08:13:09 29.354- 29.394
CUTE-I 22 Dec 07:59:31 08:03:39 22° 274° (W) 08:07:51 437.470
GOMX 1 22 Dec 08:03:27 08:04:37 11° 120° (ESE) 08:05:46 467.674
STRAND 1 22 Dec 08:05:02 08:10:14 64° 78° (ENE) 08:15:21 437.568
MaSat-1 22 Dec 08:07:13 08:09:28 18° 285° (WNW) 08:11:36 437.345
PRISM 22 Dec 08:07:49 08:11:51 41° 252° (WSW) 08:15:50 437.425
CANX-2 22 Dec 08:16:35 08:18:37 13° 115° (ESE) 08:20:39 2200.000
HO-68 22 Dec 08:19:19 08:25:26 32° 117° (ESE) 08:31:35 435.675
DOVE 4 22 Dec 08:23:25 08:25:26 12° 118° (ESE) 08:27:26 437.250
COMPASS 1 22 Dec 08:35:23 08:37:33 14° 114° (ESE) 08:39:43 437.405
SEEDS 22 Dec 08:41:19 08:44:22 19° 112° (ESE) 08:47:26 437.485
CUTE 1.7 + AOD 2 22 Dec 08:45:33 08:49:04 25° 110° (ESE) 08:52:37 437.475
DANDE 22 Dec 08:59:38 09:00:23 11° 113° (ESE) 09:01:07 436.750
DX 1 22 Dec 09:06:54 09:08:26 12° 117° (ESE) 09:09:59 434.975-435.025
CUBESAT XI-V 22 Dec 09:10:43 09:14:21 22° 247° (WSW) 09:17:58 437.345
SO-50 22 Dec 09:13:35 09:17:50 32° 66° (ENE) 09:22:01 436.795
ISS 22 Dec 09:13:52 09:17:16 83° 139° (SE) 09:20:38 145.825
BRITE-PL 22 Dec 09:14:38 09:20:15 69° 105° (ESE) 09:26:00 437.365/2234.400
Oscar 11 22 Dec 09:25:30 09:28:55 23° 111° (ESE) 09:32:22 145.826/435.025
AAUSAT CUBESAT 2 22 Dec 09:32:34 09:36:40 54° 106° (ESE) 09:40:49 437.432
UKube-1 22 Dec 09:34:42 09:38:07 23° 112° (ESE) 09:41:34 .
GOMX 1 22 Dec 09:36:16 09:41:47 80° 104° (ESE) 09:47:22 467.674
CUSAT 1 22 Dec 09:43:57 09:46:55 73° 100° (E) 09:49:32 437.405
STRAND 1 22 Dec 09:45:51 09:48:50 16° 242° (WSW) 09:51:47 437.568
CANX-2 22 Dec 09:49:54 09:54:05 51° 280° (W) 09:58:18 2200.000
CUBEBUG 2 22 Dec 09:52:05 09:56:15 31° 110° (ESE) 10:00:24 437.445
DOVE 4 22 Dec 09:57:02 10:02:24 87° 283° (WNW) 10:07:47 437.250
ZACube-1 22 Dec 09:58:28 10:02:14 25° 111° (ESE) 10:05:59 437.345
VELOX 1 22 Dec 10:04:43 10:07:35 17° 115° (ESE) 10:10:28 145.980
HO-68 22 Dec 10:05:58 10:12:49 48° 280° (W) 10:19:46 435.675
RS-15 22 Dec 10:05:59 10:18:01 86° 120° (ESE) 10:29:20 29.354- 29.394
COMPASS 1 22 Dec 10:08:46 10:12:50 47° 279° (W) 10:16:57 437.405
CINEMA 3 22 Dec 10:14:54 10:19:59 87° 103° (ESE) 10:25:01 145.822/145.860
SEEDS 22 Dec 10:16:06 10:19:57 33° 277° (W) 10:23:49 437.485
DELFI C3 22 Dec 10:18:39 10:22:44 77° 104° (ESE) 10:26:53 145.870
BEESAT 3 22 Dec 10:19:24 10:22:25 20° 130° (SE) 10:25:25 437.485
50 SAT 22 Dec 10:20:55 10:23:52 19° 112° (ESE) 10:26:50 437.505
CUTE 1.7 + AOD 2 22 Dec 10:21:21 10:24:54 25° 275° (W) 10:28:28 437.475
FUNcube-1 22 Dec 10:24:07 10:28:31 47° 107° (ESE) 10:32:55 145.935
UWE-3 22 Dec 10:27:25 10:32:03 63° 105° (ESE) 10:36:40 435.000/436.395/437.385
AIST 2 22 Dec 10:33:08 10:35:07 13° 135° (SE) 10:37:06 435.215
DX 1 22 Dec 10:39:43 10:44:05 65° 282° (WNW) 10:48:32 434.975-435.025
DANDE 22 Dec 10:41:55 10:43:52 16° 268° (W) 10:45:39 436.750
AISAT 22 Dec 10:46:46 10:51:07 48° 107° (ESE) 10:55:32 437.250
CUBEBUG 1 22 Dec 10:50:08 10:53:14 19° 114° (ESE) 10:56:23 437.445
HUMSAT D 22 Dec 10:50:08 10:54:22 53° 106° (ESE) 10:58:37 437.325/437.525
SO-50 22 Dec 10:54:13 10:58:21 29° 231° (SW) 11:02:25 436.795
BRITE-PL 22 Dec 10:55:55 10:59:11 16° 269° (W) 11:02:30 437.365/2234.400
BEESAT 2 22 Dec 10:59:41 11:03:32 46° 124° (SE) 11:07:23 435.950
Oscar 11 22 Dec 11:01:08 11:04:55 29° 276° (W) 11:08:44 145.826/435.025
ANTELSAT 22 Dec 11:03:24 11:06:13 17° 87° (E) 11:09:01 437.575/2403.000
UKube-1 22 Dec 11:10:14 11:14:05 30° 277° (W) 11:17:59 .
AAUSAT CUBESAT 2 22 Dec 11:11:31 11:12:39 11° 271° (W) 11:13:47 437.432
GOMX 1 22 Dec 11:18:13 11:20:25 12° 269° (W) 11:22:37 467.674
PCSat 22 Dec 11:18:17 11:23:11 33° 126° (SE) 11:28:02 145.827
POPSAT HIP 1 22 Dec 11:25:56 11:29:06 20° 86° (E) 11:32:13 437.405
CUBEBUG 2 22 Dec 11:28:57 11:32:54 25° 275° (W) 11:36:49 437.445
ZACube-1 22 Dec 11:34:28 11:38:27 29° 276° (W) 11:42:26 437.345
TIGRISAT 22 Dec 11:37:12 11:41:18 40° 82° (E) 11:45:19 435.000
VELOX 1 22 Dec 11:39:28 11:43:45 44° 279° (W) 11:48:08 145.980
ESTCUBE 1 22 Dec 11:45:47 11:50:18 82° 104° (ESE) 11:54:54 437.505/2401.250
BUGSAT 1 22 Dec 11:46:23 11:50:05 27° 84° (E) 11:53:41 437.445
TISAT 1 22 Dec 11:46:39 11:49:41 19° 113° (ESE) 11:52:45 437.305
DUCHIFAT 1 22 Dec 11:52:37 11:56:42 39° 82° (E) 12:00:42 145.980
SPROUT 22 Dec 11:53:27 11:56:43 21° 112° (ESE) 12:00:00 437.525
50 SAT 22 Dec 11:55:05 11:58:50 32° 277° (W) 12:02:37 437.505
BEESAT 3 22 Dec 11:57:03 12:00:38 33° 294° (WNW) 12:04:13 437.485
FUNcube-1 22 Dec 12:02:23 12:05:04 15° 272° (W) 12:07:45 145.935
UNISAT 6 22 Dec 12:06:48 12:11:10 87° 257° (WSW) 12:15:27 437.425
QB50P2 22 Dec 12:06:52 12:11:11 61° 79° (E) 12:15:24 145.880/145.840
UWE-3 22 Dec 12:07:12 12:08:56 12° 271° (W) 12:10:40 435.000/436.395/437.385
AIST 2 22 Dec 12:10:04 12:14:07 64° 298° (WNW) 12:18:11 435.215
YUBILEINY 22 Dec 12:10:08 12:18:02 40° 94° (E) 12:26:01 435.215
POLYITAN 1 22 Dec 12:16:07 12:20:29 78° 78° (ENE) 12:24:45 437.675
NANOSAT C BR1 22 Dec 12:17:17 12:21:38 80° 78° (ENE) 12:25:54 145.865
RS-15 22 Dec 12:20:36 12:28:47 23° 280° (W) 12:36:46 29.354- 29.394
CUBEBUG 1 22 Dec 12:25:12 12:29:18 37° 278° (W) 12:33:29 437.445
AISAT 22 Dec 12:25:29 12:27:59 15° 272° (W) 12:30:32 437.250
HUMSAT D 22 Dec 12:28:40 12:30:27 12° 271° (W) 12:32:13 437.325/437.525
QB50P1 22 Dec 12:31:56 12:36:16 69° 255° (WSW) 12:40:30 145.935-145.965
ANTELSAT 22 Dec 12:39:09 12:43:09 36° 252° (WSW) 12:47:06 437.575/2403.000
BEESAT 2 22 Dec 12:39:26 12:41:21 13° 289° (WNW) 12:43:17 435.950
POPSAT HIP 1 22 Dec 13:01:10 13:05:02 32° 251° (WSW) 13:08:50 437.405
PCSat 22 Dec 13:01:43 13:06:31 33° 289° (WNW) 13:11:17 145.827
SWISSCUBE 22 Dec 13:04:19 13:08:03 23° 113° (ESE) 13:11:50 437.505
ITUPSAT 1 22 Dec 13:05:26 13:09:03 22° 114° (ESE) 13:12:41 437.325
TIGRISAT 22 Dec 13:15:01 13:17:41 16° 246° (WSW) 13:20:20 435.000
TISAT 1 22 Dec 13:21:16 13:25:13 35° 278° (W) 13:29:14 437.305
BUGSAT 1 22 Dec 13:21:57 13:25:25 24° 248° (WSW) 13:28:50 437.445
BEESAT 22 Dec 13:28:18 13:32:41 37° 110° (ESE) 13:37:07 436.000
SPROUT 22 Dec 13:28:38 13:32:34 32° 277° (W) 13:36:33 437.525
DUCHIFAT 1 22 Dec 13:29:27 13:32:13 17° 246° (WSW) 13:34:57 145.980
AUBIESAT-1 22 Dec 13:42:27 13:44:54 19° 115° (ESE) 13:47:21 437.475
O/OREOS (USA 219) 22 Dec 13:42:32 13:47:09 81° 249° (WSW) 13:51:50 437.305
QB50P2 22 Dec 13:45:04 13:46:31 12° 243° (WSW) 13:47:59 145.880/145.840
YUBILEINY 22 Dec 14:06:29 14:14:40 43° 255° (WSW) 14:23:00 435.215
M-CUBED/EXP-1 PRIME 22 Dec 14:08:08 14:11:24 47° 110° (ESE) 14:14:40 437.505
STARS 22 Dec 14:08:19 14:10:15 13° 117° (ESE) 14:12:12 437.465
KKS-1 22 Dec 14:13:01 14:16:26 22° 113° (ESE) 14:19:53 437.445
VERMONT LUNAR 22 Dec 14:34:10 14:36:45 19° 34° (NE) 14:39:21 437.305
Oscar 19 22 Dec 14:40:00 14:45:07 59° 79° (E) 14:50:11 437.125/150
SWISSCUBE 22 Dec 14:41:19 14:45:41 35° 278° (W) 14:50:06 437.505
ITUPSAT 1 22 Dec 14:42:13 14:46:39 38° 278° (W) 14:51:10 437.325
PHONESAT 2.4 22 Dec 14:54:12 14:56:44 18° 35° (NE) 14:59:18 2401.200-2431.200
ITAMSAT 1 22 Dec 14:58:49 15:03:32 32° 83° (E) 15:08:11 435.822/435.867
Gurwin Techsat 1B 22 Dec 15:01:53 15:05:54 21° 86° (E) 15:09:53 435.225
BEESAT 22 Dec 15:06:59 15:10:36 21° 274° (W) 15:14:15 436.000
AUBIESAT-1 22 Dec 15:17:19 15:19:50 19° 281° (W) 15:22:20 437.475
HORYU 2 22 Dec 15:37:57 15:40:34 15° 87° (E) 15:43:11 437.375
STARS 22 Dec 15:41:44 15:46:10 61° 281° (W) 15:50:40 437.465
KKS-1 22 Dec 15:48:44 15:52:50 34° 278° (W) 15:56:59 437.445
AO-7 22 Dec 16:01:44 16:06:28 16° 89° (E) 16:11:09 29.400- 29.500
VERMONT LUNAR 22 Dec 16:11:07 16:14:44 79° 19° (NNE) 16:18:22 437.305
Oscar 19 22 Dec 16:20:48 16:23:56 16° 243° (WSW) 16:27:02 437.125/150
AIST 1 22 Dec 16:25:42 16:30:05 51° 100° (E) 16:34:25
PHONESAT 2.4 22 Dec 16:31:20 16:35:03 74° 20° (NNE) 16:38:48 2401.200-2431.200
ITAMSAT 1 22 Dec 16:38:22 16:42:54 29° 247° (WSW) 16:47:23 435.822/435.867
Gurwin Techsat 1B 22 Dec 16:40:56 16:46:02 45° 251° (WSW) 16:51:05 435.225
JAS-2 22 Dec 16:56:17 17:01:20 19° 90° (E) 17:06:29 435.910
MOZHAYETS 4 22 Dec 17:07:18 17:11:41 47° 107° (ESE) 17:16:08
HORYU 2 22 Dec 17:13:09 17:17:27 44° 252° (WSW) 17:21:41 437.375
SO-50 22 Dec 17:47:19 17:50:31 19° 133° (SE) 17:53:40 436.795
VERMONT LUNAR 22 Dec 17:49:37 17:53:12 54° 182° (S) 17:56:47 437.305
AO-7 22 Dec 17:51:47 18:00:11 89° 72° (ENE) 18:08:31 29.400- 29.500
GONETS M04 22 Dec 18:04:59 18:13:08 47° 92° (E) 18:21:21
AIST 1 22 Dec 18:05:28 18:07:12 12° 264° (W) 18:08:56
PHONESAT 2.4 22 Dec 18:10:11 18:13:53 56° 183° (S) 18:17:34 2401.200-2431.200
CUBESAT XI-V 22 Dec 18:34:45 18:38:46 29° 111° (ESE) 18:42:50 437.345
CUTE-I 22 Dec 18:38:16 18:42:10 20° 87° (E) 18:46:00 437.470
JAS-2 22 Dec 18:39:21 18:46:52 82° 255° (WSW) 18:54:45 435.910
MOZHAYETS 4 22 Dec 18:46:31 18:49:09 15° 272° (W) 18:51:48
PRISM 22 Dec 18:56:28 19:00:35 70° 282° (WNW) 19:04:47 437.425
STRAND 1 22 Dec 19:19:01 19:24:09 76° 105° (ESE) 19:29:22 437.568
SO-50 22 Dec 19:27:02 19:31:17 46° 296° (WNW) 19:35:28 436.795
VERMONT LUNAR 22 Dec 19:28:05 19:31:44 79° 165° (SSE) 19:35:22 437.305
Cubesat XI-IV 22 Dec 19:44:11 19:49:40 86° 76° (ENE) 19:55:04 437.490
AO-7 22 Dec 19:46:19 19:51:53 20° 233° (SW) 19:57:25 29.400- 29.500
PHONESAT 2.4 22 Dec 19:49:03 19:52:48 77° 167° (SSE) 19:56:32 2401.200-2431.200
GONETS M04 22 Dec 20:02:19 20:10:04 35° 253° (WSW) 20:17:55
CUBESAT XI-V 22 Dec 20:12:16 20:16:08 26° 275° (W) 20:20:05 437.345
CUTE-I 22 Dec 20:17:14 20:22:27 48° 251° (WSW) 20:27:36 437.470
JAS-2 22 Dec 20:26:37 20:30:53 17° 239° (WSW) 20:35:17 435.910
STRAND 1 22 Dec 21:02:21 21:03:52 11° 270° (W) 21:05:24 437.568
VERMONT LUNAR 22 Dec 21:06:42 21:09:53 28° 330° (NNW) 21:13:01 437.305
CUSAT 1 22 Dec 21:08:39 21:13:16 18° 91° (E) 21:17:21 437.405
MaSat-1 22 Dec 21:20:34 21:23:43 68° 68° (ENE) 21:27:03 437.345
BRITE-PL 22 Dec 21:23:13 21:27:20 25° 87° (E) 21:31:09 437.365/2234.400
Cubesat XI-IV 22 Dec 21:26:51 21:28:57 12° 240° (WSW) 21:31:02 437.490
PHONESAT 2.4 22 Dec 21:28:00 21:31:20 31° 331° (NNW) 21:34:40 2401.200-2431.200
HO-68 22 Dec 21:35:33 21:42:11 37° 82° (E) 21:48:44 435.675
CANX-2 22 Dec 21:37:35 21:41:22 30° 84° (E) 21:45:07 2200.000
GOMX 1 22 Dec 21:41:48 21:45:49 26° 86° (E) 21:49:35 467.674
COMPASS 1 22 Dec 21:54:46 21:58:32 30° 83° (E) 22:02:15 437.405
DOVE 4 22 Dec 21:59:41 22:03:42 28° 85° (E) 22:07:30 437.250
ANTELSAT 22 Dec 22:01:40 22:04:11 15° 115° (ESE) 22:06:42 437.575/2403.000
SEEDS 22 Dec 22:02:19 22:06:25 45° 81° (E) 22:10:28 437.485
DELFI C3 22 Dec 22:03:05 22:04:53 13° 88° (E) 22:06:40 145.870
DANDE 22 Dec 22:05:09 22:12:44 47° 86° (E) 22:18:54 436.750
CUTE 1.7 + AOD 2 22 Dec 22:07:49 22:12:05 63° 79° (E) 22:16:18 437.475
CINEMA 3 22 Dec 22:13:22 22:16:50 22° 86° (E) 22:20:11 145.822/145.860
O/OREOS (USA 219) 22 Dec 22:16:46 22:19:17 14° 125° (SE) 22:21:47 437.305
POPSAT HIP 1 22 Dec 22:18:36 22:20:42 13° 116° (ESE) 22:22:49 437.405
UWE-3 22 Dec 22:21:37 22:23:41 13° 89° (E) 22:25:44 435.000/436.395/437.385
RS-15 22 Dec 22:21:55 22:26:47 13° 85° (E) 22:31:39 29.354- 29.394
YUBILEINY 22 Dec 22:23:32 22:28:59 17° 116° (ESE) 22:34:23 435.215
DX 1 22 Dec 22:30:39 22:34:20 25° 84° (E) 22:37:57 434.975-435.025
TIGRISAT 22 Dec 22:34:19 22:38:24 31° 110° (ESE) 22:42:27 435.000
BUGSAT 1 22 Dec 22:35:57 22:38:38 17° 114° (ESE) 22:41:21 437.445
AISAT 22 Dec 22:42:41 22:43:45 11° 90° (E) 22:44:48 437.250
DUCHIFAT 1 22 Dec 22:44:03 22:47:36 25° 111° (ESE) 22:51:11 145.980
CUSAT 1 22 Dec 22:48:23 22:56:04 74° 261° (W) 23:02:06 437.405
Oscar 11 22 Dec 22:49:46 22:54:05 57° 80° (E) 22:58:21 145.826/435.025
AAUSAT CUBESAT 2 22 Dec 22:53:28 22:57:39 59° 255° (WSW) 23:01:46 437.432
QB50P2 22 Dec 22:58:20 23:02:19 37° 108° (ESE) 23:06:22 145.880/145.840
UKube-1 22 Dec 22:59:24 23:03:43 51° 80° (E) 23:07:59 .
BRITE-PL 22 Dec 23:01:20 23:05:52 32° 249° (WSW) 23:10:03 437.365/2234.400
UNISAT 6 22 Dec 23:03:46 23:08:23 68° 105° (ESE) 23:12:57 437.425
POLYITAN 1 22 Dec 23:07:34 23:11:45 47° 107° (ESE) 23:15:59 437.675
NANOSAT C BR1 22 Dec 23:08:17 23:12:26 47° 107° (ESE) 23:16:39 145.865
CANX-2 22 Dec 23:13:53 23:17:06 21° 248° (WSW) 23:20:19 2200.000
GOMX 1 22 Dec 23:19:45 23:23:54 28° 248° (WSW) 23:27:46 467.674
CUBEBUG 2 22 Dec 23:21:37 23:25:58 83° 78° (ENE) 23:30:10 437.445
QB50P1 22 Dec 23:22:49 23:27:08 70° 105° (ESE) 23:31:30 145.935-145.965
HO-68 22 Dec 23:23:11 23:29:49 40° 245° (WSW) 23:36:24 435.675
ZACube-1 22 Dec 23:24:50 23:29:05 63° 79° (E) 23:33:14 437.345
COMPASS 1 22 Dec 23:30:55 23:34:02 20° 248° (WSW) 23:37:09 437.405
VELOX 1 22 Dec 23:32:11 23:36:28 39° 82° (E) 23:40:41 145.980
ANTELSAT 22 Dec 23:35:59 23:40:32 53° 280° (W) 23:45:02 437.575/2403.000
DELFI C3 22 Dec 23:36:25 23:40:23 45° 254° (WSW) 23:44:18 145.870
50 SAT 22 Dec 23:37:03 23:40:52 37° 82° (E) 23:44:36 437.505
DOVE 4 22 Dec 23:37:34 23:41:20 24° 247° (WSW) 23:44:54 437.250
SEEDS 22 Dec 23:39:31 23:41:50 14° 246° (WSW) 23:44:07 437.485
ESTCUBE 1 22 Dec 23:41:27 23:44:53 20° 86° (E) 23:48:17 437.505/2401.250
CUTE 1.7 + AOD 2 22 Dec 23:46:21 23:47:26 11° 244° (WSW) 23:48:31 437.475
CINEMA 3 22 Dec 23:50:13 23:54:02 28° 249° (WSW) 23:57:42 145.822/145.860
FUNcube-1 22 Dec 23:51:05 23:55:20 63° 255° (WSW) 23:59:27 145.935
POPSAT HIP 1 22 Dec 23:51:51 23:56:06 53° 280° (W) 00:00:25 437.405
